ECMAM SPZO-MYNN

Flight info

Callsign ECMAM
Flight time 5h 37m
Altitude 39000
Route TILPA UV11 URC/N0452F380 UT335 FANES/N0450F390 UV9 IQT UL300 ROLUS/N0449F400 UN420 ORBAB/N0448F390 UM779 GIR/N0446F400 UL305 UGALU UM779 TAKOD UL347 MLY UT172 BEMOL UL417 NEFTU UR625 PIBLO/N0441F390
Aircraft B737/M-SDE2E3FGHIRWXY/LB1

Departure

Time 2026-04-30 14:07
Airport Alejandro Velasco Astete International Airport (SPZO)

Arrival

Time 2026-04-30 19:45
Airport Lynden Pindling International Airport (MYNN)
Time Latitude Longitude Altitude Speed Heading
2026-04-30 13:31 -13.53729 -71.94220 10816 ft 0 kts 113°
2026-04-30 13:58 -13.53730 -71.94215 10815 ft 1 kts 95°
2026-04-30 13:58 -13.53722 -71.94210 10815 ft 1 kts 15°
2026-04-30 13:59 -13.53707 -71.94213 10815 ft 3 kts 338°
2026-04-30 13:59 -13.53687 -71.94232 10814 ft 5 kts 306°
2026-04-30 13:59 -13.53673 -71.94269 10815 ft 6 kts 284°
2026-04-30 13:59 -13.53666 -71.94313 10815 ft 7 kts 278°
2026-04-30 14:00 -13.53660 -71.94361 10815 ft 7 kts 276°
2026-04-30 14:00 -13.53649 -71.94469 10816 ft 8 kts 276°
2026-04-30 14:00 -13.53644 -71.94517 10815 ft 8 kts 276°
2026-04-30 14:01 -13.53640 -71.94556 10817 ft 8 kts 276°
2026-04-30 14:01 -13.53634 -71.94615 10821 ft 8 kts 276°
2026-04-30 14:01 -13.53628 -71.94673 10824 ft 8 kts 276°
2026-04-30 14:01 -13.53623 -71.94729 10827 ft 8 kts 275°
2026-04-30 14:02 -13.53617 -71.94783 10831 ft 7 kts 276°
2026-04-30 14:02 -13.53612 -71.94835 10833 ft 7 kts 276°
2026-04-30 14:02 -13.53607 -71.94886 10835 ft 7 kts 276°
2026-04-30 14:02 -13.53602 -71.94935 10842 ft 7 kts 276°
2026-04-30 14:03 -13.53597 -71.94984 10853 ft 7 kts 276°
2026-04-30 14:03 -13.53592 -71.95031 10853 ft 7 kts 276°
2026-04-30 14:03 -13.53588 -71.95078 10854 ft 6 kts 276°
2026-04-30 14:03 -13.53583 -71.95124 10858 ft 6 kts 276°
2026-04-30 14:04 -13.53579 -71.95170 10860 ft 7 kts 276°
2026-04-30 14:04 -13.53573 -71.95224 10864 ft 9 kts 276°
2026-04-30 14:04 -13.53566 -71.95302 10863 ft 13 kts 276°
2026-04-30 14:04 -13.53555 -71.95412 10862 ft 16 kts 276°
2026-04-30 14:05 -13.53489 -71.95467 10867 ft 16 kts 28°
2026-04-30 14:05 -13.53421 -71.95413 10867 ft 9 kts 60°
2026-04-30 14:05 -13.53420 -71.95389 10864 ft 0 kts 95°
2026-04-30 14:06 -13.53420 -71.95388 10864 ft 2 kts 95°
2026-04-30 14:06 -13.53500 -71.94600 10821 ft 118 kts 96°
2026-04-30 14:07 -13.53736 -71.92247 10895 ft 198 kts 96°
2026-04-30 14:07 -13.53889 -71.90803 11410 ft 207 kts 96°
2026-04-30 14:07 -13.54117 -71.89337 11968 ft 211 kts 100°
2026-04-30 14:08 -13.55130 -71.86522 13237 ft 209 kts 121°
2026-04-30 14:08 -13.55801 -71.85194 13825 ft 210 kts 110°
2026-04-30 14:08 -13.56798 -71.82135 14421 ft 248 kts 106°
2026-04-30 14:09 -13.57580 -71.80464 14564 ft 276 kts 132°
2026-04-30 14:09 -13.59177 -71.79224 14807 ft 303 kts 154°
2026-04-30 14:09 -13.63480 -71.78893 16065 ft 326 kts 200°
2026-04-30 14:10 -13.65370 -71.80116 16886 ft 328 kts 227°
2026-04-30 14:10 -13.66528 -71.82128 17636 ft 333 kts 255°
2026-04-30 14:10 -13.66703 -71.84494 18341 ft 337 kts 281°
2026-04-30 14:10 -13.65965 -71.86779 19110 ft 338 kts 294°
2026-04-30 14:11 -13.64950 -71.88968 19838 ft 342 kts 303°
2026-04-30 14:11 -13.63274 -71.90680 20536 ft 344 kts 331°
2026-04-30 14:11 -13.61002 -71.91514 21000 ft 357 kts 351°
2026-04-30 14:11 -13.58463 -71.91836 21154 ft 378 kts 354°
2026-04-30 14:12 -13.55781 -71.92092 21293 ft 397 kts 355°
2026-04-30 14:12 -13.52964 -71.92342 21540 ft 410 kts 355°
2026-04-30 14:12 -13.50096 -71.92601 22022 ft 416 kts 355°
2026-04-30 14:12 -13.48182 -71.92781 22421 ft 417 kts 354°
2026-04-30 14:13 -13.44307 -71.93159 23216 ft 419 kts 354°
2026-04-30 14:13 -13.41387 -71.93454 23712 ft 424 kts 354°
2026-04-30 14:13 -13.38441 -71.93757 24216 ft 427 kts 354°
2026-04-30 14:13 -13.35481 -71.94064 24722 ft 429 kts 354°
2026-04-30 14:14 -13.32540 -71.94370 25248 ft 430 kts 353°
2026-04-30 14:14 -13.29553 -71.94681 25761 ft 432 kts 353°
2026-04-30 14:14 -13.26546 -71.94993 26232 ft 435 kts 353°
2026-04-30 14:14 -13.23529 -71.95307 26659 ft 437 kts 353°
2026-04-30 14:15 -13.20491 -71.95622 27108 ft 439 kts 353°
2026-04-30 14:15 -13.17443 -71.95938 27553 ft 441 kts 353°
2026-04-30 14:15 -13.14380 -71.96256 27978 ft 443 kts 353°
2026-04-30 14:15 -13.11307 -71.96574 28399 ft 445 kts 352°
2026-04-30 14:16 -13.08221 -71.96894 28807 ft 447 kts 352°
2026-04-30 14:16 -13.05119 -71.97215 29163 ft 449 kts 352°
2026-04-30 14:16 -13.02003 -71.97538 29543 ft 450 kts 352°
2026-04-30 14:16 -12.98885 -71.97861 29903 ft 451 kts 352°
2026-04-30 14:17 -12.95792 -71.98181 30229 ft 453 kts 352°
2026-04-30 14:17 -12.92649 -71.98507 30536 ft 455 kts 352°
2026-04-30 14:17 -12.89487 -71.98834 30814 ft 458 kts 352°
2026-04-30 14:17 -12.86299 -71.99164 31137 ft 460 kts 352°
2026-04-30 14:18 -12.83116 -71.99492 31602 ft 458 kts 352°
2026-04-30 14:18 -12.79958 -71.99818 32128 ft 454 kts 352°
2026-04-30 14:18 -12.73707 -72.00543 33014 ft 449 kts 347°
2026-04-30 14:19 -12.67832 -72.02552 33896 ft 443 kts 334°
2026-04-30 14:19 -12.65057 -72.03838 34291 ft 442 kts 334°
2026-04-30 14:19 -12.62258 -72.05145 34668 ft 442 kts 334°
2026-04-30 14:20 -12.59457 -72.06444 35059 ft 440 kts 334°
2026-04-30 14:20 -12.56667 -72.07724 35456 ft 439 kts 335°
2026-04-30 14:20 -12.52050 -72.09822 36076 ft 435 kts 335°
2026-04-30 14:21 -12.49279 -72.11077 36381 ft 435 kts 335°
2026-04-30 14:21 -12.46502 -72.12333 36659 ft 435 kts 335°
2026-04-30 14:21 -12.40974 -72.14834 37272 ft 433 kts 335°
2026-04-30 14:22 -12.38217 -72.16081 37562 ft 432 kts 335°
2026-04-30 14:22 -12.32730 -72.18553 38114 ft 430 kts 335°
2026-04-30 14:22 -12.29989 -72.19786 38373 ft 429 kts 335°
2026-04-30 14:23 -12.24527 -72.22244 38820 ft 429 kts 335°
2026-04-30 14:23 -12.19078 -72.24696 39350 ft 426 kts 335°
2026-04-30 14:24 -12.13650 -72.27138 39725 ft 426 kts 335°
2026-04-30 14:24 -12.10930 -72.28361 39939 ft 426 kts 335°
2026-04-30 14:25 -12.05553 -72.30778 40297 ft 425 kts 335°
2026-04-30 14:25 -12.00131 -72.33215 40492 ft 428 kts 335°
2026-04-30 14:26 -11.91966 -72.36882 40485 ft 423 kts 335°
2026-04-30 14:27 -11.83954 -72.40477 40482 ft 416 kts 335°
2026-04-30 14:27 -11.78676 -72.42845 40487 ft 412 kts 335°
2026-04-30 14:28 -11.70802 -72.46376 40487 ft 418 kts 335°
2026-04-30 14:28 -11.65426 -72.48786 40479 ft 424 kts 335°
2026-04-30 14:29 -11.54555 -72.53654 40457 ft 428 kts 335°
2026-04-30 14:31 -11.40965 -72.59734 40427 ft 425 kts 335°
2026-04-30 14:31 -11.32870 -72.63352 40415 ft 422 kts 335°
2026-04-30 14:32 -11.24870 -72.66926 40404 ft 419 kts 335°
2026-04-30 14:33 -11.19539 -72.69307 40394 ft 417 kts 335°
2026-04-30 14:33 -11.11563 -72.72867 40389 ft 417 kts 335°
2026-04-30 14:34 -11.06243 -72.75240 40380 ft 417 kts 335°
2026-04-30 14:34 -11.00951 -72.77600 40370 ft 418 kts 335°
2026-04-30 14:35 -10.92932 -72.81174 40361 ft 420 kts 335°
2026-04-30 14:36 -10.87553 -72.83570 40350 ft 422 kts 335°
2026-04-30 14:36 -10.82159 -72.85972 40335 ft 423 kts 335°
2026-04-30 14:37 -10.76764 -72.88373 40327 ft 424 kts 335°
2026-04-30 14:37 -10.71352 -72.90781 40320 ft 424 kts 335°
2026-04-30 14:38 -10.65966 -72.93177 40313 ft 425 kts 335°
2026-04-30 14:38 -10.60548 -72.95585 40302 ft 425 kts 335°
2026-04-30 14:39 -10.55124 -72.97996 40290 ft 425 kts 335°
2026-04-30 14:39 -10.49705 -73.00403 40278 ft 424 kts 335°
2026-04-30 14:40 -10.41622 -73.03992 40269 ft 424 kts 335°
2026-04-30 14:40 -10.36215 -73.06392 40263 ft 424 kts 336°
2026-04-30 14:41 -10.30804 -73.08793 40256 ft 423 kts 336°
2026-04-30 14:41 -10.25405 -73.11187 40243 ft 423 kts 336°
2026-04-30 14:42 -10.20005 -73.13581 40230 ft 423 kts 336°
2026-04-30 14:42 -10.14610 -73.15972 40225 ft 423 kts 336°
2026-04-30 14:43 -10.09238 -73.18352 40218 ft 423 kts 335°
2026-04-30 14:43 -10.03844 -73.20740 40208 ft 423 kts 335°
2026-04-30 14:44 -9.98442 -73.23132 40202 ft 423 kts 336°
2026-04-30 14:44 -9.93033 -73.25525 40189 ft 424 kts 336°
2026-04-30 14:45 -9.87631 -73.27915 40186 ft 424 kts 336°
2026-04-30 14:45 -9.82217 -73.30309 40173 ft 424 kts 336°
2026-04-30 14:46 -9.76804 -73.32702 40164 ft 425 kts 336°
2026-04-30 14:46 -9.71385 -73.35097 40156 ft 425 kts 336°
2026-04-30 14:47 -9.65966 -73.37491 40147 ft 425 kts 336°
2026-04-30 14:47 -9.60575 -73.39871 40138 ft 425 kts 336°
2026-04-30 14:48 -9.55143 -73.42269 40129 ft 425 kts 336°
2026-04-30 14:48 -9.49714 -73.44666 40121 ft 425 kts 336°
2026-04-30 14:49 -9.44291 -73.47058 40105 ft 425 kts 336°
2026-04-30 14:49 -9.38863 -73.49448 40103 ft 425 kts 336°
2026-04-30 14:50 -9.30714 -73.53031 40090 ft 425 kts 336°
2026-04-30 14:51 -9.22610 -73.56595 40076 ft 425 kts 336°
2026-04-30 14:52 -9.14468 -73.60175 40069 ft 425 kts 336°
2026-04-30 14:52 -9.06323 -73.63754 40047 ft 425 kts 336°
2026-04-30 14:53 -8.98173 -73.67334 40042 ft 425 kts 336°
2026-04-30 14:54 -8.87351 -73.72084 40029 ft 425 kts 336°
2026-04-30 14:55 -8.79195 -73.75665 40018 ft 426 kts 336°
2026-04-30 14:56 -8.68315 -73.80447 40001 ft 426 kts 336°
2026-04-30 14:57 -8.60183 -73.84020 39992 ft 426 kts 336°
2026-04-30 14:58 -8.49294 -73.88802 39989 ft 426 kts 336°
2026-04-30 14:58 -8.41134 -73.92383 39985 ft 426 kts 336°
2026-04-30 15:00 -8.27515 -73.98357 39984 ft 427 kts 336°
2026-04-30 15:01 -8.16642 -74.03123 39982 ft 427 kts 336°
2026-04-30 15:01 -8.08463 -74.06706 39985 ft 427 kts 336°
2026-04-30 15:02 -8.03007 -74.09095 39979 ft 427 kts 336°
2026-04-30 15:03 -7.89360 -74.15069 39984 ft 427 kts 336°
2026-04-30 15:04 -7.75749 -74.21022 39978 ft 427 kts 336°
2026-04-30 15:06 -7.62090 -74.26993 39983 ft 428 kts 336°
2026-04-30 15:07 -7.51129 -74.31580 39958 ft 428 kts 347°
2026-04-30 15:07 -7.45187 -74.31835 39964 ft 431 kts
2026-04-30 15:08 -7.39362 -74.30336 39972 ft 433 kts 14°
2026-04-30 15:09 -7.25825 -74.26490 39976 ft 434 kts 13°
2026-04-30 15:10 -7.14147 -74.23273 39979 ft 435 kts 13°
2026-04-30 15:11 -6.96643 -74.18468 39980 ft 435 kts 13°
2026-04-30 15:13 -6.82071 -74.14468 39978 ft 435 kts 14°
2026-04-30 15:14 -6.61643 -74.08867 39969 ft 434 kts 14°
2026-04-30 15:17 -6.35475 -74.01697 39971 ft 434 kts 14°
2026-04-30 15:19 -6.12155 -73.95315 39971 ft 435 kts 14°
2026-04-30 17:39 10.64242 -75.63038 39833 ft 446 kts 339°
2026-04-30 17:42 10.94136 -75.71621 39830 ft 447 kts 339°
2026-04-30 17:43 11.09122 -75.75897 39832 ft 448 kts 339°
2026-04-30 17:44 11.27148 -75.80894 39833 ft 449 kts 339°
2026-04-30 17:47 11.54303 -75.88464 39837 ft 451 kts 339°
2026-04-30 17:48 11.75520 -75.94390 39828 ft 452 kts 339°
2026-04-30 17:50 11.99732 -76.01286 39842 ft 452 kts 338°
2026-04-30 17:52 12.17916 -76.06485 39843 ft 452 kts 338°
2026-04-30 17:54 12.45144 -76.14271 39839 ft 451 kts 338°
2026-04-30 17:56 12.69365 -76.21208 39852 ft 452 kts 339°
2026-04-30 17:58 12.87510 -76.26413 39849 ft 452 kts 339°
2026-04-30 18:00 13.11797 -76.33395 39860 ft 453 kts 338°
2026-04-30 18:01 13.26957 -76.37759 39865 ft 454 kts 338°
2026-04-30 18:02 13.45218 -76.43024 39869 ft 454 kts 339°
2026-04-30 18:04 13.63423 -76.48281 39888 ft 454 kts 339°
2026-04-30 18:06 13.87776 -76.55327 39892 ft 455 kts 339°
2026-04-30 18:08 14.09067 -76.61498 39897 ft 454 kts 339°
2026-04-30 18:10 14.33393 -76.68566 39907 ft 454 kts 339°
2026-04-30 18:11 14.54694 -76.74766 39906 ft 454 kts 339°
2026-04-30 18:13 14.69860 -76.79190 39906 ft 454 kts 339°
2026-04-30 18:14 14.85061 -76.83629 39917 ft 453 kts 339°
2026-04-30 18:15 15.03333 -76.88862 39915 ft 456 kts 341°
2026-04-30 18:16 15.15717 -76.91653 39918 ft 456 kts 342°
2026-04-30 18:17 15.21927 -76.93064 39914 ft 456 kts 342°
2026-04-30 18:18 15.30165 -76.94966 39918 ft 456 kts 342°
2026-04-30 18:18 15.37370 -76.96637 39923 ft 455 kts 342°
2026-04-30 18:19 15.43555 -76.98071 39928 ft 455 kts 342°
2026-04-30 18:19 15.48697 -76.99263 39925 ft 455 kts 342°
2026-04-30 18:20 15.55897 -77.00933 39925 ft 455 kts 342°
2026-04-30 18:20 15.61032 -77.02125 39926 ft 455 kts 342°
2026-04-30 18:21 15.67210 -77.03560 39925 ft 455 kts 342°
2026-04-30 18:21 15.73385 -77.04995 39925 ft 454 kts 342°
2026-04-30 18:22 15.79553 -77.06429 39925 ft 454 kts 342°
2026-04-30 18:22 15.88804 -77.08582 39927 ft 454 kts 342°
2026-04-30 18:23 15.94964 -77.10016 39927 ft 454 kts 342°
2026-04-30 18:23 16.01130 -77.11453 39923 ft 454 kts 342°
2026-04-30 18:24 16.10337 -77.13601 39926 ft 453 kts 342°
2026-04-30 18:25 16.16489 -77.15036 39933 ft 452 kts 342°
2026-04-30 18:25 16.25693 -77.17187 39935 ft 451 kts 342°
2026-04-30 18:26 16.34889 -77.19337 39935 ft 451 kts 342°
2026-04-30 18:27 16.44037 -77.21479 39936 ft 451 kts 342°
2026-04-30 18:28 16.53500 -77.21898 39934 ft 467 kts
2026-04-30 18:28 16.62919 -77.19001 39935 ft 471 kts 13°
2026-04-30 18:29 16.75408 -77.14966 39936 ft 471 kts 12°
2026-04-30 18:30 16.87966 -77.11022 39935 ft 471 kts 12°
2026-04-30 18:31 16.97400 -77.08056 39936 ft 471 kts 12°
2026-04-30 18:32 17.06780 -77.05101 39937 ft 471 kts 12°
2026-04-30 18:33 17.16193 -77.02135 39935 ft 471 kts 12°
2026-04-30 18:33 17.25599 -76.99167 39935 ft 470 kts 12°
2026-04-30 18:34 17.34962 -76.96209 39933 ft 469 kts 12°
2026-04-30 18:35 17.41211 -76.94233 39935 ft 469 kts 12°
2026-04-30 18:35 17.47454 -76.92257 39936 ft 468 kts 12°
2026-04-30 18:36 17.56810 -76.89294 39935 ft 468 kts 12°
2026-04-30 18:37 17.66148 -76.86333 39936 ft 467 kts 12°
2026-04-30 18:37 17.72371 -76.84358 39934 ft 467 kts 12°
2026-04-30 18:38 17.78555 -76.82394 39936 ft 467 kts 12°
2026-04-30 18:38 17.84778 -76.80416 39936 ft 467 kts 12°
2026-04-30 18:39 17.91038 -76.78654 39925 ft 461 kts
2026-04-30 18:39 17.97344 -76.78658 39930 ft 447 kts 344°
2026-04-30 18:40 18.03404 -76.80001 39936 ft 445 kts 342°
2026-04-30 18:40 18.09461 -76.81411 39933 ft 446 kts 342°
2026-04-30 18:41 18.15536 -76.82781 39936 ft 447 kts 342°
2026-04-30 18:41 18.21582 -76.84120 39938 ft 447 kts 342°
2026-04-30 18:42 18.27672 -76.85466 39941 ft 447 kts 342°
2026-04-30 18:42 18.36799 -76.87489 39949 ft 447 kts 342°
2026-04-30 18:45 18.70170 -76.94934 39946 ft 445 kts 342°
2026-04-30 18:46 18.76236 -76.96292 39945 ft 446 kts 342°
2026-04-30 18:46 18.82298 -76.97650 39946 ft 446 kts 342°
2026-04-30 18:47 18.88381 -76.99014 39944 ft 446 kts 342°
2026-04-30 18:47 18.94463 -77.00378 39946 ft 447 kts 342°
2026-04-30 18:48 19.00550 -77.01746 39946 ft 447 kts 342°
2026-04-30 18:48 19.06602 -77.03106 39945 ft 447 kts 342°
2026-04-30 18:49 19.12695 -77.04476 39948 ft 447 kts 342°
2026-04-30 18:49 19.18791 -77.05848 39949 ft 447 kts 342°
2026-04-30 18:50 19.24879 -77.07220 39956 ft 447 kts 342°
2026-04-30 18:50 19.30971 -77.08594 39956 ft 447 kts 342°
2026-04-30 18:51 19.37034 -77.10065 39953 ft 445 kts 339°
2026-04-30 18:51 19.42958 -77.11808 39954 ft 444 kts 338°
2026-04-30 18:52 19.48918 -77.13598 39954 ft 445 kts 339°
2026-04-30 18:52 19.54878 -77.15354 39955 ft 445 kts 339°
2026-04-30 18:53 19.60853 -77.17098 39953 ft 445 kts 339°
2026-04-30 18:53 19.66825 -77.18840 39955 ft 445 kts 339°
2026-04-30 18:54 19.72794 -77.20585 39953 ft 444 kts 339°
2026-04-30 18:54 19.78759 -77.22330 39960 ft 444 kts 339°
2026-04-30 18:55 19.84717 -77.24075 39965 ft 444 kts 339°
2026-04-30 18:55 19.93602 -77.26671 39970 ft 443 kts 339°
2026-04-30 18:56 20.02538 -77.29284 39969 ft 444 kts 339°
2026-04-30 18:57 20.11467 -77.31899 39969 ft 443 kts 339°
2026-04-30 18:57 20.17408 -77.33642 39967 ft 442 kts 339°
2026-04-30 18:58 20.26309 -77.36256 39961 ft 442 kts 339°
2026-04-30 18:59 20.35155 -77.38855 39976 ft 441 kts 339°
2026-04-30 19:00 20.46961 -77.42330 39977 ft 439 kts 339°
2026-04-30 19:01 20.59006 -77.44725 39985 ft 450 kts 356°
2026-04-30 19:02 20.68422 -77.44346 39982 ft 452 kts 357°
2026-04-30 19:03 20.81005 -77.43895 39984 ft 452 kts 356°
2026-04-30 19:04 20.93533 -77.43512 39984 ft 451 kts 356°
2026-04-30 19:05 21.06078 -77.43124 39990 ft 450 kts 356°
2026-04-30 19:06 21.18596 -77.42737 39991 ft 449 kts 357°
2026-04-30 19:06 21.27957 -77.42445 39992 ft 448 kts 357°
2026-04-30 19:07 21.37268 -77.42157 39991 ft 447 kts 357°
2026-04-30 19:08 21.48674 -77.41840 39992 ft 445 kts 357°
2026-04-30 19:09 21.57913 -77.41601 39989 ft 444 kts 357°
2026-04-30 19:09 21.64087 -77.41437 39991 ft 443 kts 357°
2026-04-30 19:10 21.76404 -77.41109 39992 ft 442 kts 357°
2026-04-30 19:11 21.85635 -77.40864 39988 ft 442 kts 357°
2026-04-30 19:12 21.91778 -77.40700 39983 ft 442 kts 357°
2026-04-30 19:12 21.97928 -77.40537 39967 ft 441 kts 357°
2026-04-30 19:13 22.10163 -77.40209 39954 ft 441 kts 357°
2026-04-30 19:14 22.16289 -77.40046 39949 ft 440 kts 357°
2026-04-30 19:14 22.22418 -77.39882 39942 ft 440 kts 357°
2026-04-30 19:15 22.28541 -77.39719 39947 ft 439 kts 357°
2026-04-30 19:15 22.37633 -77.40409 39943 ft 436 kts 350°
2026-04-30 19:16 22.43629 -77.41087 39947 ft 437 kts 350°
2026-04-30 19:17 22.52728 -77.42046 39946 ft 439 kts 351°
2026-04-30 19:17 22.61874 -77.42963 39943 ft 440 kts 351°
2026-04-30 19:18 22.71041 -77.43879 39945 ft 441 kts 351°
2026-04-30 19:19 22.77162 -77.44492 39946 ft 441 kts 351°
2026-04-30 19:19 22.86278 -77.45406 39944 ft 440 kts 351°
2026-04-30 19:20 22.92375 -77.46018 39945 ft 439 kts 351°
2026-04-30 19:21 23.01476 -77.46934 39951 ft 437 kts 351°
2026-04-30 19:22 23.13554 -77.48150 39956 ft 435 kts 351°
2026-04-30 19:23 23.31584 -77.49970 39956 ft 432 kts 351°
2026-04-30 19:24 23.40521 -77.50874 39955 ft 431 kts 351°
2026-04-30 19:25 23.55421 -77.52384 39962 ft 429 kts 352°
2026-04-30 19:26 23.67339 -77.53596 39437 ft 434 kts 352°
2026-04-30 19:26 23.70342 -77.53902 38845 ft 432 kts 352°
2026-04-30 19:27 23.76299 -77.54506 37559 ft 428 kts 352°
2026-04-30 19:27 23.82175 -77.55103 36197 ft 425 kts 352°
2026-04-30 19:28 23.85125 -77.55404 35440 ft 425 kts 352°
2026-04-30 19:28 23.91027 -77.56006 33808 ft 426 kts 352°
2026-04-30 19:29 23.96959 -77.56612 32052 ft 429 kts 352°
2026-04-30 19:29 23.99936 -77.56917 31110 ft 431 kts 352°
2026-04-30 19:30 24.08978 -77.57843 28311 ft 443 kts 353°
2026-04-30 19:30 24.15158 -77.58475 26657 ft 444 kts 353°
2026-04-30 19:31 24.21246 -77.59097 25047 ft 436 kts 353°
2026-04-30 19:31 24.24252 -77.59404 24249 ft 433 kts 353°
2026-04-30 19:31 24.30234 -77.60018 22638 ft 429 kts 354°
2026-04-30 19:32 24.33197 -77.60322 21828 ft 427 kts 353°
2026-04-30 19:32 24.36155 -77.60626 21024 ft 429 kts 353°
2026-04-30 19:32 24.39127 -77.60932 20194 ft 428 kts 353°
2026-04-30 19:32 24.42086 -77.61236 19365 ft 425 kts 353°
2026-04-30 19:33 24.45024 -77.61537 18531 ft 422 kts 353°
2026-04-30 19:33 24.47932 -77.61836 17709 ft 417 kts 353°
2026-04-30 19:33 24.50799 -77.62131 16862 ft 411 kts 353°
2026-04-30 19:33 24.53627 -77.62422 16048 ft 403 kts 353°
2026-04-30 19:34 24.56392 -77.62707 15252 ft 395 kts 353°
2026-04-30 19:34 24.59077 -77.62984 14477 ft 391 kts 353°
2026-04-30 19:34 24.64465 -77.63541 12902 ft 386 kts 353°
2026-04-30 19:35 24.67129 -77.63816 12125 ft 384 kts 353°
2026-04-30 19:35 24.69782 -77.64090 11343 ft 381 kts 353°
2026-04-30 19:35 24.72415 -77.64363 10559 ft 378 kts 353°
2026-04-30 19:35 24.74982 -77.64628 10402 ft 363 kts 354°
2026-04-30 19:36 24.77504 -77.64889 10256 ft 372 kts 354°
2026-04-30 19:36 24.80117 -77.65160 10104 ft 381 kts 354°
2026-04-30 19:36 24.85366 -77.65705 9320 ft 381 kts 354°
2026-04-30 19:37 24.88001 -77.65977 8792 ft 381 kts 354°
2026-04-30 19:37 24.90648 -77.66251 8268 ft 381 kts 354°
2026-04-30 19:37 24.93287 -77.66523 7731 ft 378 kts 354°
2026-04-30 19:37 24.95881 -77.66792 7205 ft 367 kts 354°
2026-04-30 19:38 24.98379 -77.67049 6693 ft 354 kts 354°
2026-04-30 19:38 25.00788 -77.67300 6209 ft 342 kts 353°
2026-04-30 19:38 25.03121 -77.67543 5740 ft 331 kts 353°
2026-04-30 19:38 25.05384 -77.67780 5290 ft 322 kts 353°
2026-04-30 19:39 25.07562 -77.68007 4859 ft 314 kts 353°
2026-04-30 19:39 25.09717 -77.68230 4439 ft 307 kts 354°
2026-04-30 19:39 25.11816 -77.68439 4054 ft 300 kts 357°
2026-04-30 19:39 25.13812 -77.67981 3835 ft 291 kts 28°
2026-04-30 19:40 25.15391 -77.66681 3728 ft 277 kts 44°
2026-04-30 19:40 25.16740 -77.65225 3583 ft 266 kts 44°
2026-04-30 19:40 25.17948 -77.63741 3447 ft 254 kts 64°
2026-04-30 19:40 25.18251 -77.61926 3372 ft 236 kts 102°
2026-04-30 19:41 25.17521 -77.60391 3189 ft 223 kts 142°
2026-04-30 19:41 25.16255 -77.59484 3020 ft 214 kts 147°
2026-04-30 19:41 25.15077 -77.58476 2759 ft 215 kts 142°
2026-04-30 19:41 25.13965 -77.57374 2477 ft 215 kts 138°
2026-04-30 19:42 25.12915 -77.56218 2207 ft 211 kts 136°
2026-04-30 19:42 25.11895 -77.55076 1915 ft 206 kts 136°
2026-04-30 19:42 25.10904 -77.53967 1648 ft 198 kts 136°
2026-04-30 19:42 25.09949 -77.52903 1404 ft 192 kts 136°
2026-04-30 19:43 25.09030 -77.51877 1132 ft 182 kts 136°
2026-04-30 19:43 25.08183 -77.50931 903 ft 168 kts 136°
2026-04-30 19:43 25.07401 -77.50059 728 ft 149 kts 136°
2026-04-30 19:44 25.06087 -77.48591 280 ft 125 kts 136°
2026-04-30 19:44 25.05465 -77.47890 148 ft 128 kts 136°
2026-04-30 19:44 25.04848 -77.47197 22 ft 120 kts 136°
2026-04-30 19:44 25.04331 -77.46625 17 ft 88 kts 135°
2026-04-30 19:45 25.03983 -77.46239 17 ft 54 kts 135°
2026-04-30 19:45 25.03802 -77.46039 19 ft 23 kts 134°
2026-04-30 19:45 25.03761 -77.45942 19 ft 12 kts 56°
2026-04-30 19:45 25.03822 -77.45872 17 ft 13 kts 45°
2026-04-30 19:46 25.03892 -77.45880 16 ft 12 kts 315°
2026-04-30 19:46 25.03951 -77.45945 16 ft 12 kts 315°
2026-04-30 19:46 25.04009 -77.46009 16 ft 12 kts 314°
2026-04-30 19:46 25.04065 -77.46072 16 ft 11 kts 314°
2026-04-30 19:47 25.04120 -77.46133 18 ft 11 kts 314°
2026-04-30 19:47 25.04155 -77.46173 16 ft 11 kts 314°
2026-04-30 19:47 25.04224 -77.46249 16 ft 10 kts 315°
2026-04-30 19:47 25.04274 -77.46305 16 ft 10 kts 314°
2026-04-30 19:48 25.04327 -77.46364 17 ft 12 kts 315°
2026-04-30 19:48 25.04394 -77.46438 16 ft 15 kts 315°
2026-04-30 19:48 25.04467 -77.46519 17 ft 15 kts 314°
2026-04-30 19:48 25.04538 -77.46598 16 ft 14 kts 315°
2026-04-30 19:49 25.04605 -77.46673 17 ft 13 kts 315°
2026-04-30 19:49 25.04746 -77.46700 16 ft 13 kts 44°
2026-04-30 19:49 25.04798 -77.46649 16 ft 8 kts 18°
2026-04-30 19:50 25.04835 -77.46666 16 ft 3 kts 326°
2026-04-30 19:50 25.04842 -77.46672 16 ft 0 kts 326°